Torna al catalogo

SL-12 DEB

LostHEO
NORAD 44561·DEBRIS·🇷🇺 Russia

Lanciato Sep 2, 2010 da Baikonur Cosmodrome

Loading…

Prossimi Passaggi (prossime 24 ore)

TLE

ObsoletoSource: Space-Track

Epoca: Oct 19, 2019, 11:01 UTC

1 44561U 10041AG  19292.45968067  .00012386  00000-0  17915-1 0  9998
2 44561  65.4875 271.3592 5779252  34.4603 352.1424  4.22359741  2249

Traccia SL-12 DEB in tempo reale con AllMySat

Download on the App Store